Location: ?
(35.4554°N, 139.3092°E)
Time: 22:56:37
(UTC+00:00)

Meteor 2-8 Rocket - Pass Details

Date: 21 April 2021
Orbit: 936 x 959 km, 82.5° (Epoch: 10 May)

Event Time Altitude Azimuth Distance (km) Brightness Sun altitude
Exits shadow 12:06:49 83° 2° (N) 966 4.4 -30.1°
Drops below altitude 10° 12:12:42 10° 7° (N) 2,681 7.2 -30.9°
Sets 12:15:11 0° 7° (N) 3,626 8.0 -31.3°
